Location: Tel Aviv
(32.0670°N, 34.7670°E)
Time: 13:27:59
(UTC+03:00)

Explorer 11/Cluster Stage 4 - All Passes

Search period start: 12 September 2024 00:00
Search period end: 22 September 2024 00:00
Orbit: 464 x 1209 km, 28.8° (Epoch: 11 September)

Date Brightness Start Highest point End Pass type
(mag) Time Alt. Az. Time Alt. Az. Time Alt. Az.
12 Sep - 05:55:13 10° S 05:58:58 15° SE 06:03:01 10° ESE visible
12 Sep - 07:39:57 10° SW 07:46:38 41° SSE 07:53:56 10° E daylight
12 Sep - 09:27:24 10° WSW 09:35:03 66° S 09:42:56 10° E daylight
12 Sep - 11:15:51 10° W 11:23:47 67° S 11:31:19 10° ESE daylight
12 Sep - 13:04:53 10° W 13:12:12 42° SSW 13:18:43 10° SE daylight
12 Sep - 14:55:41 10° WSW 14:59:48 16° SW 15:03:36 10° S daylight
13 Sep - 05:36:01 10° S 05:39:47 16° SE 05:43:51 10° ESE visible
13 Sep - 07:20:53 10° SW 07:27:23 42° SSE 07:34:40 10° E daylight
13 Sep - 09:08:17 10° WSW 09:15:46 67° S 09:23:43 10° E daylight
13 Sep - 10:56:38 10° W 11:04:31 66° S 11:12:11 10° ESE daylight
13 Sep - 12:45:36 10° W 12:52:56 41° SSW 12:59:38 10° SE daylight
13 Sep - 14:36:31 10° WSW 14:40:36 16° SW 14:44:25 10° S daylight
14 Sep - 05:16:54 10° S 05:20:35 16° SE 05:24:38 10° ESE visible
14 Sep - 07:01:50 10° SW 07:08:09 43° SSE 07:15:22 10° E daylight
14 Sep - 08:49:11 10° WSW 08:56:30 68° S 09:04:26 10° E daylight
14 Sep - 10:37:27 10° W 10:45:13 65° S 10:52:59 10° ESE daylight
14 Sep - 12:26:21 10° W 12:33:39 40° SSW 12:40:29 10° SE daylight
14 Sep - 14:17:23 10° WSW 14:21:22 15° SW 14:25:08 10° S daylight
15 Sep - 04:57:49 10° S 05:01:25 16° SSE 05:05:24 10° ESE visible
15 Sep - 06:42:50 10° SW 06:48:54 44° SSE 06:56:01 10° E daylight
15 Sep - 08:30:07 10° WSW 08:37:13 68° S 08:45:08 10° E daylight
15 Sep - 10:18:17 10° W 10:25:54 64° S 10:33:45 10° ESE daylight
15 Sep - 12:07:07 10° W 12:14:21 38° SSW 12:21:16 10° SE daylight
15 Sep - 13:58:17 10° WSW 14:02:06 14° SW 14:05:47 10° S daylight
16 Sep - 04:38:46 10° S 04:42:16 17° SSE 04:46:08 10° ESE visible
16 Sep - 06:23:50 10° SW 06:29:41 45° SSE 06:36:39 10° E daylight
16 Sep - 08:11:05 10° WSW 08:17:57 68° S 08:25:48 10° E daylight
16 Sep - 09:59:08 10° W 10:06:36 63° S 10:14:28 10° ESE daylight
16 Sep - 11:47:54 10° W 11:55:01 37° SSW 12:02:00 10° SE daylight
16 Sep - 13:39:14 10° WSW 13:42:50 14° SW 13:46:18 10° S daylight
17 Sep - 04:19:46 10° S 04:23:07 17° SSE 04:26:52 10° ESE visible
17 Sep - 06:04:53 10° SW 06:10:30 45° SSE 06:17:16 10° E daylight
17 Sep - 07:52:05 10° WSW 07:58:42 68° S 08:06:25 10° E daylight
17 Sep - 09:40:02 10° W 09:47:17 61° S 09:55:08 10° ESE daylight
17 Sep - 11:28:44 10° W 11:35:40 35° SSW 11:42:39 10° SE daylight
17 Sep - 13:20:19 10° WSW 13:23:32 13° SW 13:26:42 10° S daylight
18 Sep - 04:00:46 10° S 04:03:59 17° SSE 04:07:36 10° ESE visible
18 Sep - 05:45:57 10° SW 05:51:19 46° SSE 05:57:52 10° E visible
18 Sep - 07:33:06 10° WSW 07:39:27 68° S 07:47:01 10° E daylight
18 Sep - 09:20:57 10° W 09:27:58 59° S 09:35:45 10° ESE daylight
18 Sep - 11:09:35 10° W 11:16:20 33° SSW 11:23:15 10° SE daylight
18 Sep - 13:01:30 10° SW 13:04:13 12° SW 13:06:56 10° SSW daylight
19 Sep - 03:41:47 10° S 03:44:52 17° SSE 03:48:21 10° ESE visible
19 Sep - 05:27:02 10° SW 05:32:09 46° SSE 05:38:27 10° E visible
19 Sep - 07:14:08 10° W 07:20:13 68° S 07:27:35 10° E daylight
19 Sep - 09:01:54 10° W 09:08:39 57° SSW 09:16:20 10° ESE daylight
19 Sep - 10:50:29 10° W 10:56:58 31° SSW 11:03:48 10° SE daylight
19 Sep - 12:42:57 10° SW 12:44:54 11° SW 12:46:51 10° SSW daylight
20 Sep - 03:22:49 10° S 03:25:46 17° SSE 03:29:04 10° ESE visible
20 Sep - 05:08:07 10° WSW 05:13:01 46° SSE 05:19:03 10° E visible
20 Sep - 06:55:12 10° W 07:01:00 67° S 07:08:08 10° E daylight
20 Sep - 08:42:53 10° W 08:49:21 54° SSW 08:56:52 10° ESE daylight
20 Sep - 10:31:26 10° W 10:37:38 29° SSW 10:44:15 10° SSE daylight
21 Sep - 03:03:50 10° S 03:06:40 17° SSE 03:09:51 10° ESE visible
21 Sep - 04:49:15 10° WSW 04:53:53 47° SSE 04:59:39 10° E visible
21 Sep - 06:36:16 10° W 06:41:49 66° S 06:48:41 10° E daylight
21 Sep - 08:23:53 10° W 08:30:05 52° SSW 08:37:23 10° ESE daylight
21 Sep - 10:12:25 10° W 10:18:18 27° SSW 10:24:40 10° SSE daylight
